Location: Antoign�
(47.0844°N, 0.1131°W)
Time: 03:01:18
(UTC+00:00)

Cosmos 2278 Rocket - Pass Details

Date: 03 March 2021
Orbit: 841 x 845 km, 71.0° (Epoch: 12 April)

Event Time Altitude Azimuth Distance (km) Brightness Sun altitude
Rises 20:23:20 0° 334° (NNW) 3,415 6.0 -26.7°
Reaches altitude 10° 20:25:49 10° 338° (NNW) 2,476 5.1 -27.1°
Enters shadow 20:30:47 59° 23° (NNE) 973 2.4 -27.9°
